カタログに戻る

COSMOS 2251 DEB

運用中LEO
NORAD 37971·DEBRIS·🇷🇺 Russia

打ち上げ Jun 16, 1993 から Plesetsk Cosmodrome

Loading…

次のパス (今後24時間)

TLE

最新Source: Space-Track

元期: Sep 13, 2026, 06:52 UTC

1 37971U 93036BPW 26256.28641426  .00004924  00000-0  11956-2 0  9995
2 37971  73.9891 244.4481 0070417 312.8439  46.6817 14.51644362646589

AllMySatでCOSMOS 2251 DEBをリアルタイム追跡

Download on the App Store